This is the latest recevied weather packets stored in our database for station/object SR2CPA-13. If no packets are shown the sender has not sent any weather packets the latest 10 day(s).
| Time | Temp. | Humidity | Pressure | Rain* | Wind** | Luminosity | Snow |
|---|---|---|---|---|---|---|---|
| 1777642610 | 23.33° C | 34% | 0 hPa | 0 mm | - | - | - |
| 1777641990 | 23.33° C | 33% | 0 hPa | 0 mm | - | - | - |
| 1777641390 | 23.33° C | 33% | 0 hPa | 0 mm | - | - | - |
| 1777640790 | 23.33° C | 33% | 0 hPa | 0 mm | - | - | - |
| 1777640170 | 23.33° C | 34% | 0 hPa | 0 mm | - | - | - |
| 1777639550 | 23.33° C | 35% | 0 hPa | 0 mm | - | - | - |
| 1777638950 | 22.78° C | 37% | 0 hPa | 0 mm | - | - | - |
| 1777638330 | 22.78° C | 36% | 0 hPa | 0 mm | - | - | - |
| 1777637730 | 22.78° C | 34% | 0 hPa | 0 mm | - | - | - |
| 1777637110 | 21.67° C | 39% | 0 hPa | 0 mm | - | - | - |
| 1777636510 | 21.67° C | 38% | 0 hPa | 0 mm | - | - | - |
| 1777635890 | 22.78° C | 39% | 0 hPa | 0 mm | - | - | - |
| 1777635290 | 22.78° C | 40% | 0 hPa | 0 mm | - | - | - |
| 1777634670 | 21.67° C | 39% | 0 hPa | 0 mm | - | - | - |
| 1777634070 | 21.11° C | 41% | 0 hPa | 0 mm | - | - | - |
| 1777633450 | 21.67° C | 40% | 0 hPa | 0 mm | - | - | - |
| 1777632850 | 21.11° C | 41% | 0 hPa | 0 mm | - | - | - |
| 1777632230 | 21.67° C | 42% | 0 hPa | 0 mm | - | - | - |
| 1777631630 | 21.11° C | 40% | 0 hPa | 0 mm | - | - | - |
| 1777631010 | 20.56° C | 43% | 0 hPa | 0 mm | - | - | - |
| 1777630410 | 21.11° C | 43% | 0 hPa | 0 mm | - | - | - |
| 1777629810 | 20.56° C | 42% | 0 hPa | 0 mm | - | - | - |
| 1777629190 | 20° C | 46% | 0 hPa | 0 mm | - | - | - |
| 1777628570 | 20° C | 45% | 0 hPa | 0 mm | - | - | - |
| 1777627970 | 20° C | 46% | 0 hPa | 0 mm | - | - | - |
* Rain latest hour (hover to see other rain measurements)
** Current wind speed in m/s (hover to see current wind gust speed)